Theta_e
299 297 294 300 303 308 306 309 309 312 316 314 314 315 322 325 325 325 326 328 330 331 336 338 340 343 342 344 346 346 346 348 349 348 347 348 348 350 350 351 352 352 349 351
296 294 300 304 305 305 307 306 307 310 316 315 315 315 321 325 325 325 326 327 328 330 330 334 338 340 340 341 345 345 346 347 348 348 348 348 348 348 349 350 351 352 351 351
293 297 303 305 303 302 300 301 304 309 314 316 315 311 314 322 324 326 327 328 329 329 329 331 335 338 339 339 341 343 344 346 348 349 347 347 347 345 344 346 348 348 349 349
296 301 303 302 303 304 297 304 305 309 310 302 312 298 310 316 319 322 324 325 327 329 331 331 334 336 339 339 342 343 343 343 347 348 347 345 343 341 340 341 345 343 343 342
297 298 299 300 303 306 302 306 305 308 305 304 307 300 304 316 314 318 322 325 327 329 330 331 333 336 338 341 340 342 342 343 346 347 348 346 341 339 334 337 340 337 335 337
300 302 302 302 305 308 306 301 299 298 299 294 303 303 300 309 316 320 323 326 328 330 331 333 334 337 337 340 341 342 342 343 346 347 347 346 342 333 332 333 333 331 330 332
296 298 301 305 300 302 299 295 289 289 292 293 299 301 305 311 320 321 322 325 329 331 332 332 332 334 336 338 340 342 342 342 346 347 346 345 341 333 333 333 332 328 329 333
291 290 298 302 300 298 297 296 290 286 287 294 299 299 306 316 317 322 323 325 327 330 333 333 334 335 336 339 340 342 342 343 346 347 346 343 338 332 332 332 329 329 331 334
289 290 299 302 303 302 295 293 296 290 287 289 293 298 306 309 310 316 319 322 323 328 331 334 335 336 337 338 340 342 343 344 345 346 344 336 332 328 329 329 330 330 332 333
294 288 296 300 302 301 299 299 293 289 285 285 290 293 297 303 308 310 314 318 322 326 330 334 336 337 338 339 341 343 345 344 345 345 341 335 330 328 328 328 330 328 329 332
294 291 292 297 296 296 295 293 292 292 290 287 286 291 300 304 308 310 313 319 320 323 328 332 336 339 339 340 341 342 344 345 345 343 338 334 328 328 329 330 332 330 330 331
296 294 291 293 297 300 299 296 295 292 288 289 289 292 304 307 308 313 314 318 318 323 327 331 335 338 338 339 340 342 344 345 347 344 337 333 330 330 330 331 332 331 331 330
296 289 288 289 291 295 295 296 292 292 291 289 290 293 305 306 309 313 314 315 317 322 325 329 331 334 337 337 340 342 344 345 347 343 335 332 330 330 331 332 331 330 331 330
306 289 292 292 292 295 294 297 296 294 290 290 293 297 301 307 308 311 315 316 316 320 324 326 328 331 334 335 337 341 343 345 346 341 336 333 331 331 332 332 331 331 330 330
297 292 291 298 297 297 297 298 297 295 295 294 298 298 303 307 309 311 316 317 317 317 318 324 327 329 331 332 334 338 341 345 345 339 336 335 334 333 333 332 332 331 330 331
296 292 292 296 298 298 297 299 299 299 299 297 298 298 304 308 311 311 313 315 317 318 319 320 323 326 327 329 331 336 340 343 345 340 338 338 335 334 334 334 333 332 331 331
295 292 289 291 295 293 291 298 298 299 301 301 297 304 305 307 309 311 312 314 317 318 319 318 321 324 325 327 331 334 338 343 344 341 340 337 332 333 333 333 332 332 331 332
299 291 290 290 291 285 297 301 303 302 305 306 306 305 308 309 312 313 314 313 314 316 319 320 321 325 327 328 330 334 338 341 342 341 339 334 333 332 332 333 333 332 331 331
302 294 290 289 288 293 303 307 306 305 304 312 308 311 310 311 312 311 314 315 315 319 320 324 325 324 326 330 333 335 338 340 340 338 336 335 334 333 334 333 331 332 332 331
305 301 295 289 288 290 299 308 313 311 299 311 312 310 309 311 304 307 314 316 315 317 318 319 320 322 326 329 335 335 335 336 337 336 336 336 336 337 334 333 332 332 332 332
299 300 296 293 294 297 307 310 313 300 300 309 311 311 311 308 309 313 316 316 318 318 320 323 323 325 330 333 335 332 332 333 334 334 335 335 335 333 332 331 333 332 330 328
301 297 298 298 293 293 309 310 303 307 311 311 312 312 311 312 315 318 319 321 324 324 326 327 325 324 333 334 333 331 330 331 332 331 331 331 332 333 331 328 329 329 328 325
300 306 302 302 298 307 310 308 311 311 313 313 315 317 317 315 315 318 320 323 325 326 327 329 329 328 327 330 330 326 327 329 327 325 324 325 326 327 327 325 325 324 325 324
308 310 305 305 308 310 311 312 314 314 312 313 313 313 313 312 315 317 320 321 324 325 325 327 325 323 322 324 325 325 327 328 325 322 323 323 323 323 325 324 322 323 324 324
306 309 307 307 309 311 313 314 315 313 313 311 311 311 311 311 311 315 317 324 324 324 325 324 322 322 323 323 324 325 326 326 324 323 323 323 324 323 320 308 313 322 316 318
303 305 304 303 311 308 310 313 314 311 311 311 311 310 310 309 310 313 311 317 324 323 324 321 320 321 321 323 324 325 328 328 326 324 324 322 322 320 315 312 309 300 298 298
Wind_Speed
5 5 8 11 10 6 7 7 12 3 2 2 5 5 15 15 13 15 15 15 16 16 16 14 13 12 11 9 8 9 8 8 6 2 3 2 3 2 2 3 4 4 4 4
4 8 10 7 6 7 8 8 7 1 4 4 1 3 9 16 18 17 16 15 14 15 8 11 11 11 12 13 13 10 11 9 8 5 3 3 3 2 2 2 3 4 4 4
6 5 11 8 5 7 5 10 7 14 7 3 6 3 8 11 8 11 13 12 13 15 12 11 13 14 12 12 12 12 12 11 8 8 4 2 2 2 1 2 2 3 5 5
6 5 9 9 10 8 7 8 8 10 12 8 7 6 8 12 17 14 17 15 16 15 12 13 15 14 13 14 11 12 12 10 9 10 7 6 4 4 3 3 2 4 5 5
8 5 8 5 8 10 10 9 11 8 8 6 3 3 7 13 10 22 20 20 19 18 18 16 17 17 16 14 12 11 10 9 9 10 9 7 4 3 2 2 4 4 3 4
9 3 8 12 5 9 9 8 8 6 5 2 9 9 6 8 25 24 16 20 19 17 18 17 16 15 14 11 11 11 11 11 10 10 11 11 9 6 4 3 4 3 2 2
3 7 3 4 6 1 6 7 1 3 2 7 4 3 13 11 17 24 23 22 21 19 17 17 17 17 14 14 15 13 14 13 12 13 12 11 10 8 9 7 6 5 3 3
8 6 8 4 8 9 7 10 8 7 6 5 4 9 12 22 16 13 9 15 12 17 18 20 20 18 17 17 15 14 14 14 13 13 12 10 9 6 6 7 4 5 4 4
7 8 5 5 5 10 4 4 7 9 2 3 5 8 9 7 8 8 13 11 17 19 20 21 19 19 19 18 19 19 15 14 13 14 11 11 9 9 8 8 6 4 4 4
9 1 7 6 4 3 10 9 4 3 6 5 5 4 7 5 12 9 8 16 18 18 17 18 19 20 19 20 19 17 16 17 13 14 12 11 11 11 9 8 8 7 7 5
8 5 6 6 11 13 3 3 6 6 5 8 4 8 10 11 11 12 14 18 18 18 18 19 19 19 21 19 16 16 16 16 15 15 13 12 11 11 9 10 9 8 7 7
12 10 10 12 4 7 11 12 9 7 6 2 5 9 5 12 6 9 14 15 12 13 17 18 18 18 17 17 17 18 17 16 17 14 13 14 12 11 11 10 10 9 9 7
7 5 7 7 6 1 5 6 6 6 5 9 7 8 3 6 7 9 12 9 9 10 9 11 11 15 16 17 18 18 17 19 16 13 13 13 13 13 13 11 9 8 8 8
14 4 12 17 13 7 6 7 7 8 6 7 9 9 6 10 10 8 9 9 10 12 12 11 11 15 17 16 16 16 17 16 14 14 15 16 17 18 13 7 5 7 7 7
9 10 6 19 12 8 8 9 11 9 8 9 8 11 14 13 14 14 15 7 8 10 10 14 17 14 10 10 11 13 14 14 15 14 16 19 16 11 12 11 5 5 6 7
3 8 9 19 17 15 13 12 9 8 4 4 4 9 9 6 3 6 10 11 12 13 16 13 9 8 9 10 12 11 11 13 13 14 16 10 10 9 9 9 7 8 9 10
2 4 5 15 9 6 6 19 11 7 6 10 10 19 6 6 9 10 11 13 16 16 13 12 12 12 9 10 9 12 13 9 11 12 10 10 13 14 14 12 15 13 11 9
4 1 3 7 6 5 14 7 15 15 6 7 4 6 12 8 9 1 1 10 10 8 8 8 7 6 8 6 8 7 7 10 10 11 11 13 15 15 15 17 17 15 14 14
3 4 4 6 7 5 1 4 6 8 7 2 6 4 4 4 5 5 5 4 6 4 6 7 7 6 5 7 6 7 6 7 9 11 12 13 15 17 15 15 13 11 6 4
1 2 3 1 7 8 5 4 3 1 1 2 2 6 8 3 5 4 5 4 9 9 7 7 5 3 4 1 6 8 9 9 10 10 10 12 12 11 5 5 6 6 5 5
5 5 3 6 3 4 2 8 2 6 7 5 3 3 4 5 3 4 5 9 9 9 9 5 8 5 1 2 4 3 6 9 9 11 9 9 8 6 6 3 3 5 7 8
7 2 2 4 3 0 11 4 5 2 0 7 8 5 15 9 5 9 11 8 12 11 9 8 6 6 3 3 4 8 5 3 12 13 11 10 9 8 7 7 4 6 8 7
6 8 4 1 3 5 7 3 3 3 11 12 12 6 9 9 7 8 7 10 8 8 7 5 7 9 12 4 3 10 6 8 12 13 11 9 9 10 11 12 10 6 7 6
6 1 7 5 4 7 9 8 7 5 7 5 8 11 14 9 9 8 8 8 7 4 5 4 9 10 8 7 9 11 11 12 13 13 12 10 10 9 9 6 8 7 4 5
2 3 6 6 3 2 4 3 6 3 9 13 13 15 12 14 10 8 8 5 5 6 8 8 7 6 9 11 10 10 12 14 12 13 11 9 4 4 4 6 5 3 2 1
4 1 3 7 7 7 6 3 6 7 10 8 14 15 12 12 7 6 9 7 4 4 4 5 4 6 7 10 10 9 10 11 11 9 7 5 4 4 5 4 4 10 7 5
Wind_Direction
188 122 177 188 188 183 144 167 176 109 34 66 183 188 177 185 195 197 196 198 201 203 208 203 198 191 185 184 174 186 177 194 170 149 147 175 212 205 228 208 212 198 201 193
86 200 201 172 159 164 161 147 206 23 134 135 183 288 191 199 203 201 204 209 206 212 179 187 188 183 185 186 188 182 195 192 187 172 157 163 167 196 179 201 210 207 194 180
153 226 145 141 171 140 169 164 169 210 142 82 127 319 191 217 215 218 227 222 216 211 201 194 189 189 189 192 190 191 197 198 182 176 129 117 88 79 128 204 190 194 175 169
212 208 158 150 175 148 162 203 163 139 150 198 161 247 228 204 211 214 221 212 216 212 205 199 193 193 193 201 196 196 198 192 185 172 175 167 171 180 215 191 189 178 167 161
240 169 158 165 191 163 214 157 153 162 164 122 198 99 265 174 223 227 218 212 212 207 202 198 199 199 199 194 192 198 196 189 181 180 185 181 174 188 205 191 185 172 171 179
221 219 168 185 177 182 142 90 55 53 103 112 218 181 254 188 213 230 216 215 207 204 200 201 196 194 199 196 193 194 191 197 182 182 185 183 184 184 177 183 177 176 176 194
320 259 212 150 128 91 82 80 7 41 70 210 208 149 230 217 221 222 209 207 203 197 192 192 188 193 192 187 195 196 196 200 188 188 189 187 186 182 187 185 181 165 173 199
171 240 177 173 166 169 179 154 155 187 179 219 113 209 246 229 229 245 229 213 192 197 194 195 192 191 193 194 198 199 200 200 191 191 194 188 181 185 189 180 179 187 187 193
161 249 283 173 151 142 194 157 188 105 39 90 202 283 310 238 249 219 222 174 195 196 195 195 192 193 194 196 199 199 196 204 194 195 190 185 180 176 189 184 183 181 183 189
210 240 223 243 137 214 161 169 99 355 141 220 268 266 230 245 245 223 215 203 203 200 195 195 194 194 197 201 202 198 200 202 195 194 193 186 187 185 181 167 189 187 187 185
148 131 269 128 209 206 119 158 55 118 132 168 196 258 214 212 219 217 220 212 198 195 192 194 197 197 200 202 197 200 200 197 197 194 189 183 184 184 174 180 187 187 176 184
206 184 213 212 231 190 182 180 161 173 222 213 173 254 229 217 208 221 231 211 200 195 195 195 195 195 198 201 199 200 201 200 205 195 184 187 176 180 182 191 186 176 183 180
187 209 213 310 327 263 194 173 130 113 93 188 176 258 268 256 245 225 222 189 185 181 185 190 184 196 196 200 203 203 201 207 199 186 181 182 180 184 190 191 181 182 179 187
174 158 184 224 226 173 192 177 174 148 142 173 212 232 258 242 226 229 227 201 186 194 188 182 188 198 200 200 200 203 207 203 196 185 187 189 187 191 180 174 183 188 193 186
153 191 199 228 195 179 204 179 168 176 187 169 235 196 233 217 211 209 211 194 165 187 182 196 201 203 194 193 197 204 208 199 193 189 191 201 193 158 160 147 125 255 189 197
3 243 193 232 216 201 222 230 181 195 162 249 289 249 220 242 101 154 193 184 200 205 206 202 192 184 187 190 197 198 200 202 190 196 206 182 155 149 143 107 352 235 227 214
278 185 121 235 191 155 243 223 214 197 188 186 193 230 182 192 206 222 185 187 204 214 201 184 184 193 190 191 179 195 200 180 183 195 191 156 153 156 154 157 182 229 235 232
232 91 158 243 85 173 242 186 205 208 198 195 242 215 186 208 205 212 258 199 202 175 171 184 173 182 206 181 192 183 174 178 177 183 172 160 163 168 175 189 198 199 219 226
236 129 250 162 169 222 101 12 127 158 224 213 258 222 239 127 89 26 356 165 153 170 155 178 179 185 150 176 175 174 165 157 165 178 170 166 171 176 186 214 194 198 193 186
291 182 159 236 143 190 201 302 30 304 228 26 273 255 155 186 123 256 328 81 80 77 62 61 55 32 67 237 174 168 171 156 174 166 164 172 178 194 193 215 150 124 134 146
332 329 62 292 118 273 345 324 281 149 219 12 345 250 156 112 144 142 125 78 80 76 66 65 68 68 326 127 139 195 163 174 130 126 136 144 143 132 119 118 121 124 135 161
186 51 282 285 11 89 0 10 162 192 14 76 49 42 80 70 36 102 78 77 75 75 59 35 49 64 76 93 160 139 86 138 124 116 120 114 114 118 123 125 144 170 177 202
173 178 159 113 270 283 312 338 331 246 86 92 83 62 93 81 43 43 61 63 66 84 81 83 75 58 41 50 75 88 118 135 108 106 104 116 130 140 156 166 176 207 201 155
11 242 106 138 300 329 353 347 353 18 66 82 80 66 58 64 36 37 34 28 37 18 46 63 74 70 66 80 99 126 135 124 116 123 139 155 160 170 188 174 170 179 181 128
238 358 139 77 203 98 19 344 295 10 79 75 65 64 66 64 40 49 41 26 48 44 19 19 82 127 117 122 130 138 139 135 144 160 164 167 155 145 88 42 10 96 75 144
334 206 152 195 210 127 154 88 275 92 74 63 77 60 49 59 56 57 42 14 42 75 128 124 94 96 121 125 142 157 164 158 158 164 167 139 122 109 129 149 113 54 49 49